Tracking 19817 objects as of 20-Aug-2019
HD Live streaming from Space Station
objects crossing your sky now

COSMOS 2251 DEB

Track COSMOS 2251 DEB now!
10-day predictions


NORAD ID: 34424
Int'l Code: 1993-036RR
Perigee: 628.4 km
Apogee: 698.5 km
Inclination: 74.0 °
Period: 97.9 minutes
Semi major axis: 7034 km
RCS: 0.023 m2 (small)
Launch date: June 16, 1993
Source: Commonwealth of Independent States (former USSR) (CIS)
Launch site: PLESETSK MISSILE AND SPACE COMPLEX (PKMTR)

Note: This is SATELLITE DEBRIS
aabbcc
Your satellite tracking list
Your tracking list is empty




NASA's NSSDC Master Catalog

Two Line Element Set (TLE):
1 34424U 93036RR  19230.47702014 +.00000707 +00000-0 +11735-3 0  9992
2 34424 074.0159 242.5696 0049804 238.5056 272.5587 14.71485849558716
Source of the keplerian elements: AFSPC